User: anonymous   Login
Location: Αθήνα
(37.9839°N, 23.7283°E)
Time: 16:16:20
(UTC+03:00)
Language:

EO-79 - Orbit

View from above orbital plane
View from above orbital plane
View from above satellite
View from above satellite

Ground track
Ground track

The orbit data is extracted from the following two-line orbital elements,

1 40025U 14033R   24169.88416856  .00006194  00000-0  50533-3 0  9999
2 40025  98.0372 130.6649 0012210 155.7660 204.4139 14.99771326543494
Epoch (UTC): 17 June 2024 21:13:12
Eccentricity: 0.0012210
inclination: 98.0372°
perigee height: 559 km
apogee height: 576 km
right ascension of ascending node: 130.6649°
argument of perigee: 155.7660°
revolutions per day: 14.99771326
mean anomaly at epoch: 204.4139°
orbit number at epoch: 54349

The dashed part of the orbit path shows where the satellite is in the earth's shadow,  

DLR